Theta_e
353 352 350 349 348 347 346 347 346 344 346 345 342 338 335 337 345 351 354 353 351 352 353 351 347 344 342 338 336 333 329 325 324 323 324 325 327 327 325 324 326 326 326
355 353 352 349 350 348 346 346 346 345 344 343 341 340 337 337 347 355 354 355 351 351 353 352 349 345 344 339 337 334 329 326 323 323 324 326 327 326 324 324 324 325 326
360 359 354 351 349 350 350 348 348 348 345 342 342 341 339 338 347 355 355 353 353 351 353 353 351 348 345 341 338 336 330 327 324 323 324 326 326 324 323 323 323 323 325
361 358 355 353 353 350 348 347 346 345 345 342 339 340 339 339 345 355 355 353 352 353 350 352 351 350 346 342 339 338 332 329 326 325 325 326 324 324 323 323 323 322 324
356 357 355 354 356 351 347 346 344 345 344 344 340 340 341 340 346 351 354 353 353 350 350 349 349 348 347 343 339 339 334 329 327 325 325 324 323 323 322 322 323 323 323
354 355 354 354 356 351 348 346 348 345 345 343 339 340 341 341 346 351 352 352 350 351 350 351 349 346 345 342 339 339 336 331 328 326 325 324 323 323 322 322 323 323 323
355 355 352 354 355 353 351 350 345 345 342 346 342 341 339 344 350 349 351 350 350 350 350 350 348 346 343 342 340 337 336 332 328 326 324 324 324 323 323 323 322 321 321
353 352 353 353 353 351 353 351 349 342 342 346 340 338 331 337 345 348 349 347 349 348 347 348 347 346 344 340 338 333 333 330 326 324 324 324 324 323 322 322 321 320 322
351 351 353 354 354 353 349 353 350 348 339 343 351 342 332 329 339 348 345 344 344 343 344 344 343 342 342 340 332 328 323 320 322 323 324 324 323 322 321 320 319 319 321
342 348 351 351 356 350 353 353 352 352 351 338 345 345 347 345 336 337 339 337 338 339 342 340 339 338 336 334 325 320 319 318 319 320 320 320 320 319 318 318 319 319 320
338 342 348 352 354 351 354 354 354 353 348 343 338 341 350 344 344 337 330 329 332 334 336 336 335 332 331 329 327 322 315 313 313 314 314 315 316 316 317 317 318 319 319
333 341 342 350 353 353 353 352 355 354 350 349 343 345 340 338 337 336 332 338 334 330 329 329 328 328 328 325 318 312 312 310 310 310 312 313 313 314 314 316 317 318 318
330 335 345 349 347 353 353 355 354 353 351 348 351 339 346 345 341 339 337 338 330 329 324 326 326 326 324 321 320 311 313 308 308 309 310 310 310 311 312 313 314 314 315
329 338 338 344 346 349 351 354 350 349 350 349 346 347 340 351 352 345 342 337 326 327 325 326 325 323 320 319 314 310 316 309 307 308 307 307 308 309 310 310 310 310 311
330 332 334 337 342 345 349 352 347 349 348 349 350 349 343 343 341 341 339 336 333 329 323 324 321 321 319 317 315 314 313 312 308 307 306 306 306 307 308 308 308 308 309
327 331 332 334 338 343 345 350 349 350 347 347 345 346 335 328 331 332 327 329 331 322 321 319 317 319 318 315 313 312 312 308 311 306 305 305 305 306 306 306 306 306 307
323 329 331 332 334 338 343 347 348 344 343 339 337 340 331 328 321 323 325 322 319 316 314 314 317 315 315 314 312 312 311 312 312 307 304 305 305 305 305 305 305 305 306
320 325 329 331 334 335 341 342 339 340 340 334 331 330 326 320 315 313 316 314 311 314 311 313 312 311 311 311 311 310 310 311 312 310 304 304 304 304 304 304 304 304 304
320 321 328 330 332 335 337 338 336 335 336 332 329 325 321 314 312 310 310 308 307 308 308 308 309 309 309 309 308 311 311 313 312 309 308 306 306 305 305 304 303 303 303
323 323 329 332 331 334 337 335 332 328 324 322 318 313 313 310 310 309 309 308 306 307 308 307 306 306 307 308 308 307 308 310 310 312 310 310 308 310 306 304 304 305 305
321 325 330 332 333 333 329 329 323 313 310 307 308 305 306 306 306 305 303 305 306 306 305 303 303 305 305 305 305 306 306 308 310 312 309 311 312 311 312 308 307 304 303
327 328 327 324 320 318 308 310 310 308 306 303 302 303 305 304 303 303 303 301 302 306 304 302 303 303 306 306 306 305 306 303 302 311 308 309 312 311 312 309 304 303 303
309 309 310 310 309 308 304 304 305 306 304 302 303 302 302 302 301 300 300 300 300 299 301 306 306 305 306 306 305 304 304 302 304 308 308 306 311 305 311 308 304 302 302
303 302 303 304 303 302 301 301 303 303 301 301 302 301 300 300 301 301 301 301 303 302 303 305 307 306 305 305 305 305 306 308 309 308 309 303 308 305 304 309 303 302 301
298 298 299 299 298 299 299 300 301 299 298 298 298 298 299 299 297 298 301 301 302 303 297 297 297 296 296 295 298 305 305 303 303 305 308 301 306 305 303 303 307 302 301
296 296 296 297 297 296 296 297 298 298 296 295 295 295 295 296 295 296 303 303 302 303 305 307 308 304 302 306 299 306 303 300 303 301 305 300 303 300 296 307 301 300 299
Wind_Speed
10 9 10 10 9 10 10 10 10 9 10 12 11 12 12 12 11 7 6 17 15 16 16 17 15 13 12 11 10 9 7 4 3 2 3 7 10 12 12 13 13 13 14
10 10 10 11 11 10 10 10 10 9 10 11 11 12 12 11 12 11 8 10 15 16 16 16 16 14 13 13 12 11 9 6 2 1 4 8 10 11 13 13 12 14 14
12 12 10 10 10 10 12 10 10 9 9 10 11 11 11 13 12 11 9 7 12 13 14 15 16 16 15 15 13 13 10 7 4 3 5 9 10 11 11 13 14 14 13
12 11 10 10 10 10 6 10 10 10 9 10 10 10 11 11 13 11 9 8 7 9 14 14 15 15 16 15 14 14 11 10 7 5 6 9 10 11 12 14 15 13 15
14 12 10 11 10 10 11 9 9 10 9 9 11 11 10 10 11 10 10 10 8 7 7 21 18 15 15 15 14 14 11 10 9 7 7 9 10 11 12 14 16 15 17
14 12 10 12 10 10 11 12 11 10 8 8 10 11 11 11 11 9 9 8 9 10 9 7 11 11 16 15 14 14 13 13 10 8 8 9 10 12 13 16 17 18 19
14 11 10 13 12 12 13 12 9 10 10 10 10 9 11 9 10 9 9 8 9 9 9 8 7 7 10 16 12 13 13 10 10 9 10 11 12 14 15 18 18 19 21
12 11 12 13 13 11 14 14 13 11 11 11 10 11 10 12 11 10 7 7 8 7 8 9 9 8 7 8 8 8 10 9 9 10 12 13 13 15 17 19 20 21 20
12 13 14 15 13 12 12 14 14 16 13 10 13 8 7 12 7 5 7 7 5 8 7 6 6 7 7 7 7 7 6 3 8 11 13 14 15 17 19 20 20 21 19
15 17 15 14 16 13 13 12 13 12 12 11 8 12 15 6 8 7 6 7 7 7 6 6 5 5 6 6 3 8 5 3 6 9 12 14 16 17 18 18 19 18 20
17 17 18 18 17 14 14 14 12 12 12 11 9 10 10 11 11 9 7 7 6 5 5 6 5 6 6 4 5 7 4 4 7 10 13 14 14 15 16 18 18 19 18
12 16 18 16 16 16 16 14 14 14 15 14 12 8 7 11 12 11 13 11 7 7 6 5 6 6 4 4 1 2 2 4 8 11 12 13 14 14 16 17 18 17 18
12 13 15 15 15 17 16 15 14 14 16 14 14 14 10 10 10 9 10 6 6 4 5 6 6 4 4 4 3 3 6 3 8 11 13 13 14 14 16 16 17 17 18
13 14 15 15 17 18 17 15 13 13 13 13 15 13 12 7 7 7 7 8 5 6 6 4 5 5 4 4 5 3 8 5 6 12 12 12 13 15 15 16 17 17 17
15 17 19 17 17 18 18 16 14 14 13 13 13 13 11 4 4 3 4 3 7 7 8 8 5 4 4 4 4 7 7 5 10 11 10 12 14 14 15 16 16 16 16
20 20 18 18 19 18 18 17 14 14 13 10 8 11 8 4 4 3 3 1 3 6 7 4 3 3 3 3 3 7 8 11 10 6 8 11 13 14 15 16 16 16 15
16 20 19 19 19 19 17 15 16 15 15 10 9 12 11 13 6 3 3 4 3 3 3 3 1 5 5 3 6 7 9 8 6 7 3 10 13 13 14 14 14 14 13
15 18 19 19 18 19 17 16 12 10 15 14 13 12 12 9 9 9 2 6 4 5 1 4 3 4 2 3 5 9 6 7 7 4 2 9 12 12 13 13 13 12 12
16 15 19 19 19 18 17 12 10 13 13 12 13 13 13 12 10 6 10 6 2 7 2 2 3 2 2 3 7 5 6 7 6 2 11 15 12 10 12 10 10 11 12
18 15 18 19 19 17 13 12 12 11 9 11 11 11 11 9 11 9 10 6 5 4 3 2 1 1 2 3 5 7 7 7 8 5 3 8 8 8 8 5 9 9 7
14 16 18 16 9 10 8 15 15 15 16 16 15 13 12 14 12 13 7 7 2 4 3 2 2 1 4 5 6 7 7 8 8 4 8 7 7 4 0 2 7 3 9
8 7 5 11 12 7 15 20 20 16 15 17 18 16 14 15 19 21 22 18 11 4 3 4 3 3 4 5 6 8 7 8 8 5 10 9 5 7 7 4 8 10 10
12 12 11 13 14 15 23 25 26 15 15 15 15 14 11 8 14 11 19 16 11 9 8 5 5 6 5 7 7 8 8 8 9 9 9 9 7 8 10 4 8 7 10
13 12 14 15 17 13 26 28 27 19 17 16 13 11 10 7 10 9 11 8 5 7 5 6 6 6 6 8 7 7 8 8 7 2 5 6 10 8 9 10 3 8 11
15 16 14 17 18 15 22 25 24 18 18 16 13 11 8 7 6 9 10 8 6 6 7 7 3 3 6 7 5 8 8 8 8 8 5 6 8 12 8 8 7 12 12
17 15 18 17 22 17 22 22 19 14 17 12 13 9 15 9 11 8 8 6 7 7 6 6 4 7 10 6 8 5 6 7 8 7 5 8 9 7 7 5 10 7 9
Wind_Direction
228 229 239 239 240 229 225 231 231 230 223 232 235 233 242 245 251 257 258 157 182 193 200 197 201 200 199 198 191 185 178 163 103 60 350 347 335 341 331 332 327 322 317
240 233 235 237 237 237 239 229 230 232 230 240 230 239 244 243 235 250 237 161 181 196 200 199 203 204 204 204 199 194 193 183 168 355 329 327 334 331 332 324 325 318 316
237 250 238 240 240 245 238 239 240 233 248 245 244 249 237 238 242 238 236 244 161 196 202 202 204 208 210 208 203 202 201 203 213 267 304 318 329 328 320 316 315 312 311
236 235 244 245 232 236 246 237 230 234 242 249 249 245 235 236 235 232 224 222 226 183 195 213 213 213 214 217 215 208 208 216 219 257 294 317 323 318 319 318 311 314 301
234 223 230 247 239 236 225 229 245 230 236 244 263 249 251 248 237 230 224 214 224 229 209 182 201 213 215 219 226 219 209 200 226 254 289 312 320 314 314 308 305 304 302
241 235 235 249 242 232 233 230 227 230 233 243 253 261 247 242 235 232 217 224 222 216 223 225 188 208 208 216 228 228 215 217 233 258 288 298 302 306 309 306 305 308 307
257 238 234 241 231 241 234 224 226 231 240 232 247 239 255 237 267 243 218 227 218 213 229 218 233 247 184 197 215 229 230 231 247 269 294 295 297 302 305 307 302 305 303
239 236 234 237 238 234 229 227 226 228 221 241 231 237 239 214 217 226 229 227 232 231 217 222 235 239 260 191 190 199 223 235 263 285 290 294 298 302 302 301 302 303 300
238 231 235 238 243 235 237 222 221 221 231 208 224 239 231 245 218 186 212 223 211 234 236 220 234 234 233 254 157 165 181 257 286 296 297 304 301 302 302 302 303 296 296
246 239 233 234 237 242 230 230 224 226 223 234 217 226 255 285 273 168 199 194 214 232 231 224 191 214 215 230 106 55 77 17 321 305 306 300 298 300 299 300 298 298 294
265 253 241 236 233 230 236 234 230 216 216 220 215 223 222 231 245 276 250 174 200 213 207 218 199 203 209 234 207 111 76 344 317 312 301 299 302 299 302 301 299 295 301
259 239 244 240 238 233 231 233 231 220 226 219 220 227 209 213 231 232 243 271 242 168 208 202 203 211 203 207 240 73 196 307 316 302 300 301 302 303 301 297 297 301 302
268 253 245 233 232 231 233 226 226 228 225 228 218 231 222 245 252 246 232 225 224 166 200 209 210 203 211 225 227 24 282 251 291 300 301 300 302 303 296 297 299 302 303
273 267 258 245 236 237 228 226 224 227 225 232 230 227 239 231 254 263 235 228 208 217 201 212 191 202 219 246 36 283 257 200 277 295 299 306 307 298 296 300 301 303 304
269 259 263 251 242 234 231 225 223 215 224 224 227 219 220 171 178 238 301 248 228 257 218 160 200 155 245 220 70 298 296 355 304 284 296 308 302 294 297 299 299 302 304
277 270 258 251 246 234 226 224 225 214 212 216 217 200 165 129 163 167 219 211 281 285 287 50 201 145 222 265 137 298 308 290 257 237 280 303 291 298 299 302 302 301 300
262 265 255 248 241 237 229 219 229 215 203 178 179 189 169 151 136 111 206 160 128 303 275 118 176 149 233 274 321 324 295 302 299 179 266 289 296 301 297 298 303 304 306
255 260 255 248 237 230 225 217 206 193 197 180 181 166 160 140 107 115 352 66 87 52 360 216 68 196 231 326 315 302 320 311 316 84 242 278 280 290 293 295 298 306 299
252 248 254 241 236 227 219 194 167 191 195 173 160 154 148 128 137 143 137 134 80 94 237 171 166 214 324 12 309 299 325 312 298 292 213 232 244 260 269 291 305 296 288
250 234 243 232 231 221 193 168 159 147 114 112 111 118 122 123 126 128 107 92 84 120 128 148 166 350 1 352 311 348 330 343 330 325 278 259 253 238 241 272 288 282 288
245 243 236 226 207 170 144 156 127 118 117 110 105 99 98 105 108 105 107 74 107 143 157 139 64 306 26 349 2 340 332 343 323 339 345 322 323 314 190 305 285 354 332
256 238 193 137 121 109 119 119 117 117 117 112 112 105 103 104 93 94 85 69 47 94 129 50 69 49 30 10 5 353 339 349 337 358 332 326 327 336 322 335 297 309 307
66 74 83 94 96 103 112 112 113 112 109 106 108 109 115 107 103 103 99 95 75 67 55 76 71 44 13 3 349 339 347 330 317 327 329 321 10 329 324 336 293 295 302
70 73 73 86 93 94 103 105 103 100 96 93 93 88 97 131 131 115 97 106 117 84 49 57 52 38 11 357 343 321 297 306 297 286 15 305 333 338 331 324 316 273 289
75 72 74 78 85 87 98 104 103 97 93 88 82 82 89 108 96 102 112 119 115 106 140 133 144 175 226 226 274 308 5 333 332 342 48 325 331 333 329 285 29 359 339
83 81 78 73 79 79 75 84 96 103 100 95 83 80 68 58 45 41 108 113 87 64 33 49 105 197 226 171 201 315 321 321 332 327 73 334 344 357 324 326 342 322 312